Stations météo

réclame
Mon MeteoGroup
AWG, Pays-Bas (6208): Température de l'air & dewpoint: 13.01.2018 23:00:00 - 19.01.2018 23:00:00 (CET)AWG, Pays-Bas (6208): Vitesse du vent & gusts: 13.01.2018 23:00:00 - 19.01.2018 23:00:00 (CET)AWG, Pays-Bas (6208): Direction du vent: 13.01.2018 23:00:00 - 19.01.2018 23:00:00 (CET)AWG, Pays-Bas (6208): reduced air pressure: 13.01.2018 23:00:00 - 19.01.2018 23:00:00 (CET)AWG, Pays-Bas (6208): visibility: 13.01.2018 23:00:00 - 19.01.2018 23:00:00 (CET)
Date & Time tt [°C] td [°C] ff [km/h] ff [knt] fx [km/h] fx [knt] dd ppp [hPa] vv [km]
19.01.2018 23:00:00 3,4 1,5 18 10 25 14 SW 1005,4 18
19.01.2018 22:00:00 3,3 1,4 22 12 25 14 SSW 1005,2 19
19.01.2018 21:00:00 3,4 1,0 18 10 32 18 SW 1005,1 23
19.01.2018 20:00:00 4,0 1,8 24 13 32 18 WSW 1005,1 10
19.01.2018 19:00:00 3,8 1,5 22 12 40 21 SW 1005,1 14
19.01.2018 18:00:00 3,7 0,8 31 17 32 18 WSW 1004,9 10
19.01.2018 17:00:00 4,1 1,6 22 12 25 14 WSW 1005,0 21
19.01.2018 16:00:00 4,5 1,6 22 12 36 19 SW 1005,2 25
19.01.2018 15:00:00 4,8 1,8 25 14 32 18 WSW 1005,0 16
19.01.2018 14:00:00 4,5 1,7 22 12 32 18 SW 1004,8 19
19.01.2018 13:00:00 4,6 0,9 25 14 36 19 W 1004,7 23
19.01.2018 12:00:00 5,0 0,9 18 10 36 19 W 1004,6 27
19.01.2018 11:00:00 4,6 2,3 24 13 32 18 W 1004,6 10
19.01.2018 10:00:00 4,7 1,1 31 17 32 18 W 1003,8 10
19.01.2018 09:00:00 3,5 2,3 22 12 32 18 WSW 1003,7 10
19.01.2018 08:00:00 3,6 2,2 21 11 25 14 W 1002,8 10
19.01.2018 07:00:00 3,8 2,5 18 10 25 14 WSW 1002,3 10
19.01.2018 06:00:00 3,8 1,3 26 14 29 16 W 1001,6 10
19.01.2018 05:00:00 3,3 2,2 22 12 25 14 SW 1001,5 10
19.01.2018 04:00:00 3,1 1,8 16 9 22 12 SW 1001,2 10
19.01.2018 03:00:00 3,1 2,0 21 11 22 12 SW 1001,0 10
19.01.2018 02:00:00 3,3 1,8 21 11 22 12 SW 1000,6 10
19.01.2018 01:00:00 3,6 1,7 16 9 18 10 SW 1000,3 10
19.01.2018 00:00:00 5,2 1,9 18 10 32 18 WNW 1000,1 10
18.01.2018 23:00:00 5,0 1,3 21 11 32 18 WNW 999,7 10
18.01.2018 22:00:00 4,2 1,1 24 13 36 19 W 999,4 10
18.01.2018 21:00:00 4,1 1,4 31 17 43 23 W 999,0 10
18.01.2018 20:00:00 5,5 1,6 29 16 43 23 W 998,4 10
18.01.2018 19:00:00 5,6 2,0 37 20 47 25 WNW 997,7 10
18.01.2018 18:00:00 5,5 1,9 35 19 47 25 W 997,0 10
18.01.2018 17:00:00 5,5 2,2 41 22 54 29 WNW 996,2 10
18.01.2018 16:00:00 5,7 1,0 52 28 58 31 WNW 994,9 10
18.01.2018 15:00:00 5,4 1,9 46 25 58 31 WNW 993,8 10
18.01.2018 14:00:00 4,8 2,3 52 28 65 35 NW 992,4 10
18.01.2018 13:00:00 4,5 2,2 74 40 86 47 NW 989,4 10
18.01.2018 12:00:00 3,7 2,1 89 48 90 49 N 983,9 7
18.01.2018 11:00:00 4,7 3,6 37 20 61 33 WSW 976,7 3,7
18.01.2018 10:00:00 6,6 3,9 46 25 54 29 WSW 976,5 9
18.01.2018 09:00:00 7,3 5,0 29 16 50 27 WSW 977,0 6
18.01.2018 08:00:00 3,2 3,0 55 30 61 33 SE 978,6 7
18.01.2018 07:00:00 1,0 0,7 55 30 61 33 ESE 982,1 5
18.01.2018 06:00:00 1,4 0,6 44 24 50 27 SSE 987,2 2,0
18.01.2018 05:00:00 3,3 2,1 48 26 50 27 S 990,3 6
18.01.2018 04:00:00 4,7 1,2 44 24 47 25 SSW 994,0 10
18.01.2018 03:00:00 4,6 1,8 35 19 40 21 - 996,4 10
18.01.2018 02:00:00 4,7 1,8 34 18 36 19 SW 998,0 10
18.01.2018 01:00:00 4,8 2,0 29 16 40 21 SW 999,4 10
18.01.2018 00:00:00 5,4 1,8 41 22 47 25 W 1000,2 9
17.01.2018 23:00:00 5,6 1,8 46 25 50 27 W 1000,1 10
17.01.2018 22:00:00 5,5 1,6 46 25 61 33 W 1000,2 5
17.01.2018 21:00:00 5,7 2,6 42 23 58 31 WNW 999,7 10
17.01.2018 20:00:00 6,0 2,0 48 26 54 29 W 999,5 10
17.01.2018 19:00:00 6,1 1,2 54 29 61 33 WNW 999,1 10
17.01.2018 18:00:00 5,8 1,5 55 30 72 39 WNW 998,9 10
17.01.2018 17:00:00 5,7 0,6 59 32 72 39 WNW 998,1 10
17.01.2018 16:00:00 3,7 0,7 50 27 68 37 WNW 996,9 10
17.01.2018 15:00:00 4,0 1,0 65 35 68 37 WNW 996,1 9
17.01.2018 14:00:00 5,3 -0,3 37 20 50 27 W 994,7 10
17.01.2018 13:00:00 4,6 1,1 35 19 58 31 WNW 994,2 10
17.01.2018 12:00:00 4,7 0,2 41 22 47 25 WNW 993,8 10
17.01.2018 11:00:00 3,8 -0,5 50 27 54 29 W 992,5 10
17.01.2018 10:00:00 4,5 0,0 39 21 58 31 W 992,5 10
17.01.2018 09:00:00 4,3 -0,3 44 24 50 27 WNW 991,7 10
17.01.2018 08:00:00 4,6 0,3 31 17 68 37 W 990,8 10
17.01.2018 07:00:00 4,0 -0,8 37 20 65 35 WNW 988,7 10
17.01.2018 06:00:00 2,5 -0,2 41 22 58 31 W 988,9 10
17.01.2018 05:00:00 3,4 -0,1 52 28 61 33 WNW 988,0 10
17.01.2018 04:00:00 4,6 -1,1 50 27 58 31 W 987,4 10
17.01.2018 03:00:00 2,6 0,6 41 22 54 29 W 987,6 10
17.01.2018 02:00:00 3,6 0,5 41 22 54 29 WNW 987,1 10
17.01.2018 01:00:00 4,6 0,1 35 19 40 21 W 987,5 10
17.01.2018 00:00:00 4,8 0,9 29 16 40 21 WSW 987,7 10
16.01.2018 23:00:00 4,4 1,2 26 14 43 23 W 987,9 10
16.01.2018 22:00:00 3,8 0,8 31 17 50 27 WSW 987,8 10
16.01.2018 21:00:00 5,3 0,9 48 26 54 29 W 988,1 10
16.01.2018 20:00:00 5,3 0,6 48 26 50 27 W 988,3 10
16.01.2018 19:00:00 5,3 0,3 42 23 58 31 W 988,1 10
16.01.2018 18:00:00 5,1 1,1 37 20 47 25 W 988,6 10
16.01.2018 17:00:00 5,1 1,3 41 22 47 25 W 989,1 10
16.01.2018 16:00:00 5,2 1,2 39 21 61 33 W 988,5 10
16.01.2018 15:00:00 4,5 1,1 41 22 54 29 W 987,8 10
16.01.2018 14:00:00 5,4 0,4 40 21 50 27 W 987,4 16
16.01.2018 13:00:00 4,1 0,9 52 28 54 29 WNW 987,2 10
16.01.2018 12:00:00 4,3 1,5 31 17 58 31 WNW 987,5 9
16.01.2018 11:00:00 3,8 1,5 54 29 65 35 WNW 986,8 10
16.01.2018 10:00:00 5,8 2,6 41 22 40 21 W 986,1 10
16.01.2018 09:00:00 5,3 2,4 39 21 40 21 W 985,9 10
16.01.2018 08:00:00 5,3 2,5 44 24 43 23 WNW 985,7 10
16.01.2018 07:00:00 5,6 3,1 31 17 43 23 W 985,5 10
16.01.2018 06:00:00 4,3 2,9 35 19 50 27 W 985,7 10
16.01.2018 05:00:00 5,1 3,1 31 17 50 27 SW 986,3 10
16.01.2018 04:00:00 4,9 2,7 37 20 50 27 W 986,6 10
16.01.2018 03:00:00 6,1 3,4 35 19 40 21 W 986,9 10
16.01.2018 02:00:00 6,3 3,6 41 22 43 23 W 987,3 10
16.01.2018 01:00:00 6,4 4,0 41 22 43 23 W 987,3 10
16.01.2018 00:00:00 6,4 4,5 39 21 47 25 W 986,4 10
15.01.2018 23:00:00 6,9 4,8 44 24 47 25 W 985,4 10
15.01.2018 22:00:00 6,5 6,0 39 21 50 27 W 985,3 8
15.01.2018 21:00:00 5,4 4,5 61 33 72 39 S 984,2 2,3
15.01.2018 20:00:00 5,0 3,6 68 37 76 41 S 985,3 4,2
15.01.2018 19:00:00 5,2 3,6 70 38 86 47 S 987,1 1,9
15.01.2018 18:00:00 5,6 4,4 65 35 72 39 SSW 989,2 3,0
15.01.2018 17:00:00 5,2 4,5 67 36 72 39 S 990,5 2,3
15.01.2018 16:00:00 5,2 4,0 70 38 76 41 S 992,2 3,6
15.01.2018 15:00:00 5,4 3,8 70 38 76 41 S 993,7 2,7
15.01.2018 14:00:00 5,0 3,6 67 36 72 39 S 995,6 4,5
15.01.2018 13:00:00 4,3 3,3 63 34 68 37 S 998,0 2,8
15.01.2018 12:00:00 4,2 2,8 65 35 72 39 S 1000,7 -
15.01.2018 11:00:00 3,9 2,9 61 33 61 33 S 1002,5 4,3
15.01.2018 10:00:00 3,5 2,7 55 30 58 31 S 1004,3 2,7
15.01.2018 09:00:00 3,4 1,8 54 29 54 29 S 1005,1 6
15.01.2018 08:00:00 2,8 1,5 46 25 50 27 S 1006,6 6
15.01.2018 07:00:00 2,6 1,1 48 26 50 27 S 1007,6 6
15.01.2018 06:00:00 2,6 1,1 42 23 47 25 S 1008,9 6
15.01.2018 05:00:00 2,3 0,8 37 20 40 21 S 1010,4 6
15.01.2018 04:00:00 2,0 0,4 39 21 43 23 S 1011,9 7
15.01.2018 03:00:00 1,6 0,0 48 26 47 25 S 1012,9 8
15.01.2018 02:00:00 1,3 -0,8 37 20 43 23 S 1013,8 10
15.01.2018 01:00:00 0,6 -1,6 39 21 40 21 S 1014,9 10
15.01.2018 00:00:00 0,6 -2,0 37 20 40 21 SSE 1015,6 10
14.01.2018 23:00:00 0,9 -2,1 34 18 36 19 SE 1016,9 10
14.01.2018 22:00:00 1,3 -1,9 37 20 40 21 SE 1017,7 10
14.01.2018 21:00:00 1,8 -1,7 37 20 40 21 ESE 1018,4 10
14.01.2018 20:00:00 2,3 -1,5 37 20 40 21 ESE 1018,9 10
14.01.2018 19:00:00 2,3 -1,4 34 18 40 21 SE 1019,6 10
14.01.2018 18:00:00 2,2 -1,6 42 23 43 23 ESE 1020,0 10
14.01.2018 17:00:00 1,9 -1,7 34 18 40 21 ESE 1020,8 10
14.01.2018 16:00:00 1,8 -1,9 31 17 32 18 ESE 1021,2 10
14.01.2018 15:00:00 1,5 -2,2 31 17 32 18 ESE 1021,3 10
14.01.2018 14:00:00 1,3 -2,8 34 18 36 19 ESE 1021,5 10
14.01.2018 13:00:00 1,4 -2,6 34 18 40 21 ESE 1022,2 10
14.01.2018 12:00:00 1,4 -2,4 39 21 43 23 E 1022,8 10
14.01.2018 11:00:00 1,5 -2,5 42 23 43 23 E 1023,2 10
14.01.2018 10:00:00 1,3 -2,8 42 23 47 25 E 1023,6 10
14.01.2018 09:00:00 1,6 -2,2 39 21 43 23 E 1023,7 10
14.01.2018 08:00:00 1,6 -1,6 37 20 43 23 E 1023,8 10
14.01.2018 07:00:00 1,5 -1,5 39 21 43 23 E 1024,2 10
14.01.2018 06:00:00 1,6 -1,5 34 18 40 21 ESE 1024,1 10
14.01.2018 05:00:00 2,1 -1,3 34 18 36 19 ESE 1024,3 10
14.01.2018 04:00:00 2,3 -0,8 37 20 40 21 E 1024,5 10
14.01.2018 03:00:00 2,1 -0,7 31 17 40 21 E 1024,9 10
14.01.2018 02:00:00 2,3 -0,1 35 19 40 21 E 1025,0 8
14.01.2018 01:00:00 2,7 0,7 31 17 32 18 ESE 1025,0 4,8
14.01.2018 00:00:00 3,0 1,0 31 17 40 21 ESE 1025,2 5
13.01.2018 23:00:00 3,1 0,9 35 19 43 23 E 1025,6 5

tt = Température de l'air
td = dewpoint
ff = Vitesse du vent
fx = gusts
dd = Direction du vent
ppp = reduced air pressure
vv = visibility

stations d'obs. à proximité